STARLINK-5469, 55649

Orbit data source: Space-Track

STARLINK-5469, 55649 is a payload satellite owned by SpaceX/Seattle (US) in LEO that was launched on Fri, 17 Feb 2023 UTC via an FALCON 9 launch vehicle from the Air Force Western Test Range (AFWTR). Payload-class satellites include a variety of spacecraft equipped with specific instruments for various scientific and technological missions. These include communications satellites like Starlink; space stations such as the ISS; scientific satellites like the Hubble; Earth observation satellites from companies like Planet Labs, Umbra, and HawkEye 360; GPS; miniature CubeSats for education and research; and military/defense satellites.

Loading next visibility...
Identifier
55649, 2023-021X
Orbit
LEO
Country
Flag of USUS
Related business
Manufacturer
SpaceX/Seattle
Mission
Operational Commercial Communications
Bus & Motor
STARLINK, Unknown motor
Mass
305 kg wet, ~290 kg dry
Launch date (UTC)
2023-02-17 (3 years ago)
Launch vehicle
FALCON 9
Launch site
Air Force Western Test Range (AFWTR)
Object type
Payload
Rocket body
Debris
Shape & HBR
Box + 1 Pan, 10.1 m
Radar Cross Section
13.562 m², Large (>1 m²)

Expand to show TLE details & history
Last TLE update: 2 days ago

TLE from 2 days ago
0 STARLINK-5469
1 55649U 23021X   26171.43332110 -.00000081  00000-0  10068-5 0  9991
2 55649  69.9996 285.3080 0003229 273.8553  86.2237 14.98329985184182
Epoch: 2026-06-20T10:23Z
TLE epoch observation values (Epoch: 2026-06-20T10:23:58.943Z)
Latitude
0.00002°
Longitude
-139.3356°
Altitude
574.333 km
Speed
7.574 km/s
True Right ascension
19h 01m 13s
True Declination
0° 00' 00"
Sunlit
Object was in full shadow at epoch
Visualization orbit readout
Latitude
Unknown
Longitude
Unknown
Altitude
Unknown
Speed
Unknown
Apparent Right ascension
Unknown
Apparent Declination
Unknown
Sunlit
N/A
Visualization observer readout
Local Sidereal Time
21:41:41
Azimuth
Unknown
Elevation
Unknown
Doppler factor
Unknown
Orbital elements
Apogee altitude
572.248 km
Perigee altitude
567.761 km
Semi-major axis
6,948.141 km
Eccentricity
0.00032
Inclination
69.9996°
RAAN
285.308°
Arg. of periapsis
273.8553°
True anomaly
86.26062°
Mean anomaly
86.2237°
Eccentric anomaly
86.24216°
Mean motion
3.74749 °/min
Orbital period
96.06 mins
BSTAR
0.0000010068
Loading maneuver chart data...
Computing Atmospheric mass density...

Documentation

Showing up to 5 results
|